User: anonymous   Login
Location: Unspecified
(0.0000°N, 0.0000°E)
Time: 21:52:05
(UTC+00:00)
Language:

METEOR M2 - Orbit

View from above orbital plane
View from above orbital plane
View from above satellite
View from above satellite

Ground track
Ground track

The orbit data is extracted from the following two-line orbital elements,

1 40069U 14037A   21125.47381402 -.00000033  00000-0  39189-5 0  9996
2 40069  98.4648 156.1864 0006949  71.2923 288.9014 14.20683826353938
Epoch (UTC): 05 May 2021 11:22:17
Eccentricity: 0.0006949
inclination: 98.4648°
perigee height: 818 km
apogee height: 828 km
right ascension of ascending node: 156.1864°
argument of perigee: 71.2923°
revolutions per day: 14.20683826
mean anomaly at epoch: 288.9014°
orbit number at epoch: 35393

The dashed part of the orbit path shows where the satellite is in the earth's shadow,  

DLR